Weather History for PAJC - October, 2012

Change the Weather History Date:

Saturday, October 13, 2012

  Actual Average Record
Temperature  
Mean Temperature 37 °F -  
Max Temperature 41 °F 44 °F 53 °F (2011)
Min Temperature 33 °F 38 °F 32 °F (1996)
Degree Days  
Heating Degree Days 28    
Moisture  
Dew Point 24 °F    
Average Humidity 61    
Maximum Humidity 70    
Minimum Humidity 49    
Precipitation  
Precipitation 0.00 in - - ()
Sea Level Pressure  
Sea Level Pressure 29.13 in    
Wind  
Wind Speed - (North)    
Max Wind Speed -    
Max Gust Speed -    
Visibility 10 miles    
Events      
Averages and records for this station are not official NWS values.
T = Trace of Precipitation, MM = Missing Value Source: NWS Daily Summary

Daily Weather History Graph

Daily Weather History Graph

Search for Another Location

Airport or City:

Trip Planner

Search our weather history database for the weather conditions in past years. The results will help you decide how hot, cold, wet, or windy it might be!

Date:

Astronomy

Oct. 13, 2012 Rise Set
Actual Time 9:02 AM AKDT 7:35 PM AKDT
Civil Twilight 8:24 AM AKDT 8:13 PM AKDT
Nautical Twilight 7:41 AM AKDT 8:56 PM AKDT
Astronomical Twilight 6:57 AM AKDT 9:39 PM AKDT
Moon 6:51 AM AKDT (10/13) 6:33 PM AKDT (10/13)
Length of Visible Light 11h 48m
Length of Day
10h 32m
Waning Crescent, 4% of the Moon is Illuminated
Oct 13
Waning Crescent
Oct 15
New
Oct 21
First Quarter
Oct 29
Full
Nov 6
Last Quarter

Hourly Weather History & Observations

Time (AKDT) Temp. Dew Point Humidity Pressure Visibility Wind Dir Wind Speed Gust Speed Precip Events Conditions
12:16 AM 41.0 °F 30.2 °F 65% 29.08 in 10.0 mi North - - N/A   Clear
12:36 AM 41.0 °F 30.2 °F 65% 29.08 in 10.0 mi North - - N/A   Clear
12:56 AM 39.2 °F 30.2 °F 70% 29.08 in 10.0 mi North - - N/A   Clear
1:16 AM 39.2 °F 30.2 °F 70% 29.09 in 10.0 mi North - - N/A   Clear
1:36 AM 39.2 °F 28.4 °F 65% 29.09 in 10.0 mi North - - N/A   Clear
2:16 AM 39.2 °F 26.6 °F 61% 29.09 in 10.0 mi North - - N/A   Clear
2:36 AM 39.2 °F 26.6 °F 61% 29.10 in 10.0 mi North - - N/A   Clear
2:56 AM 37.4 °F 26.6 °F 65% 29.10 in 10.0 mi North - - N/A   Clear
3:16 AM 37.4 °F 26.6 °F 65% 29.10 in 10.0 mi North - - N/A   Clear
3:36 AM 37.4 °F 26.6 °F 65% 29.10 in 10.0 mi North - - N/A   Clear
3:56 AM 37.4 °F 24.8 °F 60% 29.10 in 10.0 mi North - - N/A   Clear
4:16 AM 37.4 °F 24.8 °F 60% 29.10 in 10.0 mi North - - N/A   Clear
4:56 AM 37.4 °F 24.8 °F 60% 29.10 in 10.0 mi North - - N/A   Clear
5:16 AM 37.4 °F 24.8 °F 60% 29.10 in 10.0 mi North - - N/A   Clear
5:36 AM 37.4 °F 24.8 °F 60% 29.11 in 10.0 mi North - - N/A   Clear
5:56 AM 37.4 °F 24.8 °F 60% 29.11 in 10.0 mi North - - N/A   Clear
6:56 AM 35.6 °F 24.8 °F 65% 29.11 in 10.0 mi North - - N/A   Clear
7:16 AM 35.6 °F 24.8 °F 65% 29.12 in 10.0 mi North - - N/A   Clear
7:36 AM 35.6 °F 24.8 °F 65% 29.12 in 10.0 mi North - - N/A   Clear
7:56 AM 35.6 °F 24.8 °F 65% 29.13 in 10.0 mi North - - N/A   Clear
8:16 AM 35.6 °F 24.8 °F 65% 29.13 in 10.0 mi North - - N/A   Clear
8:36 AM 35.6 °F 23.0 °F 60% 29.13 in 10.0 mi North - - N/A   Clear
8:56 AM 35.6 °F 23.0 °F 60% 29.14 in 10.0 mi North - - N/A   Clear
9:16 AM 35.6 °F 23.0 °F 60% 29.14 in 10.0 mi North - - N/A   Clear
9:36 AM 35.6 °F 23.0 °F 60% 29.14 in 10.0 mi North - - N/A   Partly Cloudy
9:56 AM 35.6 °F 23.0 °F 60% 29.15 in 10.0 mi North - - N/A   Clear
10:16 AM 35.6 °F 23.0 °F 60% 29.15 in 10.0 mi North - - N/A   Partly Cloudy
10:36 AM 35.6 °F 23.0 °F 60% 29.16 in 10.0 mi North - - N/A   Mostly Cloudy
10:56 AM 35.6 °F 23.0 °F 60% 29.16 in 10.0 mi North - - N/A   Mostly Cloudy
11:16 AM 37.4 °F 23.0 °F 56% 29.16 in 10.0 mi North - - N/A   Overcast
11:36 AM 37.4 °F 23.0 °F 56% 29.16 in 10.0 mi North - - N/A   Overcast
11:56 AM 37.4 °F 23.0 °F 56% 29.17 in 10.0 mi North - - N/A   Overcast
12:36 PM 37.4 °F 21.2 °F 52% 29.16 in 10.0 mi North - - N/A   Overcast
1:16 PM 37.4 °F 21.2 °F 52% 29.15 in 10.0 mi North - - N/A   Mostly Cloudy
1:36 PM 39.2 °F 21.2 °F 49% 29.14 in 10.0 mi North - - N/A   Mostly Cloudy
1:56 PM 39.2 °F 21.2 °F 49% 29.14 in 10.0 mi North - - N/A   Mostly Cloudy
2:16 PM 39.2 °F 23.0 °F 52% 29.14 in 10.0 mi North - - N/A   Mostly Cloudy
2:36 PM 37.4 °F 21.2 °F 52% 29.14 in 10.0 mi North - - N/A   Overcast
2:56 PM 39.2 °F 21.2 °F 49% 29.14 in 10.0 mi North - - N/A   Scattered Clouds
3:16 PM 39.2 °F 21.2 °F 49% 29.13 in 10.0 mi North - - N/A   Mostly Cloudy
3:36 PM 39.2 °F 21.2 °F 49% 29.14 in 10.0 mi North - - N/A   Overcast
3:56 PM 39.2 °F 23.0 °F 52% 29.14 in 10.0 mi North - - N/A   Overcast
4:16 PM 39.2 °F 23.0 °F 52% 29.14 in 10.0 mi North - - N/A   Overcast
4:36 PM 39.2 °F 23.0 °F 52% 29.13 in 10.0 mi North - - N/A   Overcast
4:56 PM 39.2 °F 24.8 °F 56% 29.13 in 10.0 mi North - - N/A   Overcast
5:56 PM 37.4 °F 24.8 °F 60% 29.13 in 10.0 mi North - - N/A   Overcast
6:16 PM 37.4 °F 24.8 °F 60% 29.14 in 10.0 mi North - - N/A   Overcast
6:36 PM 37.4 °F 26.6 °F 65% 29.15 in 10.0 mi North - - N/A   Overcast
6:56 PM 35.6 °F 26.6 °F 70% 29.15 in 5.0 mi North - - N/A   Overcast
7:16 PM 35.6 °F 24.8 °F 65% 29.14 in 10.0 mi North - - N/A   Overcast
8:16 PM 33.8 °F 23.0 °F 65% 29.15 in 10.0 mi North - - N/A   Overcast
8:36 PM 33.8 °F 21.2 °F 60% 29.15 in 10.0 mi North - - N/A   Overcast
9:16 PM 33.8 °F 23.0 °F 65% 29.16 in 10.0 mi North - - N/A   Overcast
9:36 PM 33.8 °F 24.8 °F 70% 29.16 in 10.0 mi North - - N/A   Overcast
9:56 PM 33.8 °F 23.0 °F 65% 29.15 in 10.0 mi North - - N/A   Overcast
10:16 PM 33.8 °F 23.0 °F 65% 29.15 in 10.0 mi North - - N/A   Overcast
10:36 PM 33.8 °F 24.8 °F 70% 29.15 in 10.0 mi North - - N/A   Overcast
10:56 PM 33.8 °F 23.0 °F 65% 29.15 in 10.0 mi North - - N/A   Overcast
11:16 PM 33.8 °F 24.8 °F 70% 29.15 in 10.0 mi North - - N/A   Overcast
11:36 PM 33.8 °F 24.8 °F 70% 29.16 in 10.0 mi North - - N/A   Overcast
11:56 PM 33.8 °F 24.8 °F 70% 29.15 in 10.0 mi North - - N/A   Overcast